Regional Weather Roundup
Issued by NWS

Home | Current Version | Previous Version | Text Only | Print | Product List | Glossary On
Versions: 1 2 3 4 5 6 7 8 9 10 11 12 13 14 15 16 17 18 19 20 21 22 23 24 25 26 27 28 29 30 31 32 33 34 35 36 37 38 39 40 41 42 43 44 45 46 47 48 49 50
000
ASUS44 KFWD 310515
RWRTX
NORTH TEXAS HOURLY WEATHER ROUNDUP
NATIONAL WEATHER SERVICE FORT WORTH TX
1200 AM CDT SUN JUL 31 2016

NOTE: "FAIR" INDICATES FEW OR NO CLOUDS BELOW 12,000 FEET WITH NO
SIGNIFICANT WEATHER AND/OR OBSTRUCTIONS TO VISIBILITY.

TXZ118-119-310600-
DALLAS/FORT WORTH METROPLEX

CITY           SKY/WX    TMP DP  RH WIND       PRES   REMARKS
DFW AIRPORT    PTCLDY    88  67  49 S14       29.92F HX  91
DALLAS LOVE    PTCLDY    89  69  51 S16       29.93F HX  93
FTW MEACHAM    CLEAR     88  66  48 S15       29.92F HX  90
DAL-EXECUTIVE  CLEAR     85  68  56 S9        29.94F
FTW-ALLIANCE   PTCLDY    84  66  54 S8        29.92F
FTW-NAS-JRB    CLEAR     88  64  44 S12       29.93F
FTW-SPINKS     CLEAR     83  66  56 S8        29.95F
ARLINGTON      CLEAR     85  68  56 SE9       29.94F
GRAND PRAIRIE  CLEAR     86  67  52 S9        29.94F
ADDISON        CLEAR     88  70  55 S10G18    29.95S HX  93
MESQUITE       CLEAR     80  72  75 S6        29.94F
LANCASTER      CLEAR     83  70  64 S3        29.95F
$$

TXZ091>094-102>105-117-120-121-131>134-310600-
NORTH CENTRAL TEXAS

CITY           SKY/WX    TMP DP  RH WIND       PRES   REMARKS
SHRMAN/DENISON CLEAR     86  70  58 S12       29.95R HX  90
GAINESVILLE    CLEAR     81  69  67 S6        29.95S
BOWIE          CLEAR     81  67  62 SE3       29.94S
BRIDGEPORT     CLEAR     84  66  54 S8        29.94F
DECATUR        CLEAR     85  63  47 S8        29.94F
DENTON         CLEAR     84  69  60 S10       29.93S
MCKINNEY       CLEAR     86  70  58 S10       29.93F HX  90
GREENVILLE     CLEAR     82  68  61 S7        29.95F
ROCKWALL       CLEAR     84  71  64 SE9G16    29.93F
TERRELL        CLEAR     82  70  66 S6        29.95F
WAXAHACHIE     CLEAR     80  70  70 SE5       29.96F
CLEBURNE       CLEAR     82  70  65 SE7       29.97F
GRANBURY       CLEAR     88  64  45 SE9       29.95F
$$

TXZ083>090-098>101-113>116-127>130-139>142-154-155-310600-
WESTERN NORTH TEXAS

CITY           SKY/WX    TMP DP  RH WIND       PRES   REMARKS
WICHITA FALLS  CLEAR     84  65  52 S10       29.91R
WF-KICKAPOO    CLEAR     85  64  49 SE9       29.92S
VERNON         PTCLDY    84  58  40 S7        29.93R
ABILENE        CLEAR     84  63  49 S9        29.97R
ABILENE-DYESS  CLEAR     83  65  53 SE8       29.96R
CISCO          CLEAR     84  64  51 SE14      29.98S HAZE
BRECKENRIDGE   CLEAR     87  63  44 S14G20    29.94S
GRAHAM         CLEAR     87  66  50 SE10      29.93R
MINERAL WELLS  CLEAR     82  66  58 SE10      29.93S
STEPHENVILLE   CLEAR     83  64  53 S3        29.99S
COMANCHE       CLEAR     82  66  58 S8        29.97F
BROWNWOOD      CLEAR     84  64  51 SE10      29.97S
COLEMAN        CLEAR     84  63  48 S9        29.98S
$$

TXZ143>147-156>162-174-175-310600-
CENTRAL TEXAS

CITY           SKY/WX    TMP DP  RH WIND       PRES   REMARKS
WACO           CLEAR     86  68  54 S10       29.96R
WACO-MCGREGOR  CLEAR     81  69  67 SE7       29.97R
HILLSBORO      CLEAR     83  68  61 SE7       29.96S
MEXIA          CLEAR     82  72  71 S13       29.97S
HEARNE         CLEAR     82  74  76 SE8       29.99S
CAMERON        CLEAR     83  73  71 S9        29.97S HX  90
TEMPLE         CLEAR     84  72  67 S15       29.98R
KILLEEN        CLEAR     82  68  63 SE10      29.98R
KILLEEN-SKYLRK CLEAR     84  71  65 S13       29.98R
FORT HOOD      CLEAR     83  69  62 S12       29.96R
GATESVILLE     CLEAR     82  66  57 CALM      29.99S
HAMILTON       CLEAR     81  66  60 S9        29.99S
LAMPASAS       CLEAR     82  70  66 SE7       29.98S
$$

TXZ095>097-106>112-122>126-135>138-148>153-164>167-310600-
EAST TEXAS

CITY           SKY/WX    TMP DP  RH WIND       PRES   REMARKS
PARIS          CLEAR     77  64  65 SE12      29.97F
SULPHUR SPRNGS CLEAR     80  70  72 SE7       29.98S
MOUNT PLEASANT CLEAR     79  70  73 SE7       29.99S
GILMER         CLEAR     79  75  86 CALM      29.98F
MINEOLA        CLEAR     82  72  69 E3        29.97F
TYLER          CLEAR     83  70  64 SE8       29.97S
LONGVIEW       PTCLDY    79  76  90 SE7       29.97S
MARSHALL       CLEAR     75  69  80 SE3       30.01F
ATHENS         CLEAR     82  68  61 S5        29.95F
PALESTINE      CLEAR     83  73  70 S5        29.98F
JACKSONVILLE   CLEAR     82  72  72 S8        30.01S
HENDERSON      CLEAR     79  72  80 CALM      29.99S
CENTER         CLEAR     81  77  89 CALM      30.00F
NACOGDOCHES    CLEAR    N/A N/A N/A S6        29.98S
LUFKIN         CLEAR     80  75  84 VRB3      29.99S
$$

SUPPLEMENTAL OBSERVATIONS (CENTRAL)

CITY           SKY/WX    TMP DP  RH WIND       PRES   REMARKS
DENISON DAM      N/A     84  68  58 S7          N/A
CADDO GRASSLND   N/A     79  70  73 SE5         N/A
CEDAR HILL       N/A     84  68  58 SE7G15      N/A
ATHENS           N/A     84  70  61 S6          N/A
LAKE LIMESTONE   N/A     81  73  78 S3          N/A
MCGREGOR         N/A     82  68  61 S9          N/A
$$

SUPPLEMENTAL OBSERVATIONS (WEST)

CITY           SKY/WX    TMP DP  RH WIND       PRES   REMARKS
MILLERS CREEK    N/A     86  64  48 S13         N/A
LBJ GRASSLAND    N/A     84  64  51 S9          N/A
COMANCHE         N/A     81  64  57 S8          N/A
HAMBY            N/A     84  61  45 S9          N/A
IVIE RESERVOIR   N/A     84  63  48 SE9         N/A
COLORADO BEND    N/A     82  66  57 SW8         N/A
$$

SUPPLEMENTAL OBSERVATIONS (EAST)

CITY           SKY/WX    TMP DP  RH WIND       PRES   REMARKS
CLARKSVILLE      N/A     75  70  83 E3          N/A
TEXARKANA        N/A     73  70  88 SE1         N/A
LINDEN           N/A     75  70  83 SE2         N/A
LUFKIN           N/A     81  77  89 MISG        N/A
N SABINE NF      N/A     79  75  89 MISG        N/A
S SABINE NF      N/A     77  73  88 CALM        N/A
$$

SUPPLEMENTAL OBSERVATIONS ARE A COLLECTION OF AUTOMATED INSTRUMENTS
THAT ARE MAINTAINED BY A VARIETY OF FEDERAL AND STATE AGENCIES.
CERTAIN ELEMENTS...SUCH AS HUMIDITY VALUES AND SUSTAINED WIND
SPEEDS...MAY BE APPROXIMATED.




USA.gov is the U.S. government's official web portal to all federal, state and local government web resources and services.